FW0984 Weather Reports


Display with metric or nautical units.
time (UTC)temp
F
wind
direction
speed
MPH
gust
MPH
rain 1hr
in
rain 24hr
in
rain mn
in
humidity
%
barometer
mb
20260902161541 90 289 0.0 0.0 0.00 0.00 0.00 64 1018.2
20260902160038 89 302 0.0 0.0 0.00 0.00 0.00 67 1018.4
20260902154534 89 328 0.0 0.0 0.00 0.00 0.00 68 1018.5
20260902153044 89 271 0.0 0.0 0.00 0.00 0.00 72 1018.6
20260902151528 88 197 0.0 0.0 0.00 0.00 0.00 68 1018.7
20260902150024 87 213 0.0 0.0 0.00 0.00 0.00 74 1018.8
20260902144519 86 125 0.0 0.0 0.00 0.00 0.00 78 1018.8
20260902143015 84 213 0.0 0.0 0.00 0.00 0.00 81 1018.7
20260902141511 81 187 0.0 0.0 0.00 0.00 0.00 86 1018.8
20260902140007 75 187 0.0 0.0 0.00 0.00 0.00 97 1018.7
20260902134506 74 162 0.0 0.0 0.00 0.00 0.00 97 1018.7
20260902133002 73 162 0.0 0.0 0.00 0.00 0.00 97 1018.7
20260902131559 72 162 0.0 0.0 0.00 0.00 0.00 97 1018.7
20260902130058 72 162 0.0 0.0 0.00 0.00 0.00 96 1018.8
20260902124555 71 162 0.0 0.0 0.00 0.00 0.00 96 1018.6
20260902123058 71 162 0.0 0.0 0.00 0.00 0.00 96 1018.6
20260902121552 70 162 0.0 0.0 0.00 0.00 0.00 96 1018.5
20260902120048 69 162 0.0 0.0 0.00 0.00 0.00 95 1018.4
20260902114547 69 162 0.0 0.0 0.00 0.00 0.00 95 1018.4
20260902113044 69 162 0.0 0.0 0.00 0.00 0.00 95 1018.2
20260902111541 69 162 0.0 0.0 0.00 0.00 0.00 95 1018.0
20260902110045 69 162 0.0 0.0 0.00 0.00 0.00 94 1018.1
20260902104539 69 162 0.0 0.0 0.00 0.00 0.00 94 1017.9
20260902103038 69 162 0.0 0.0 0.00 0.00 0.00 94 1017.9
20260902101537 70 162 0.0 0.0 0.00 0.00 0.00 94 1018.0
20260902100034 70 162 0.0 0.0 0.00 0.00 0.00 94 1017.9
20260902094532 70 162 0.0 0.0 0.00 0.00 0.00 94 1017.9
20260902093036 70 162 0.0 0.0 0.00 0.00 0.00 94 1017.9
20260902091528 70 162 0.0 0.0 0.00 0.00 0.00 94 1017.9
20260902090026 70 162 0.0 0.0 0.00 0.00 0.00 94 1017.7
20260902084524 70 162 0.0 0.0 0.00 0.00 0.00 94 1017.5
20260902083023 71 162 0.0 0.0 0.00 0.00 0.00 94 1017.4
20260902081523 71 162 0.0 0.0 0.00 0.00 0.00 94 1017.2
20260902080021 71 162 0.0 0.0 0.00 0.00 0.00 94 1017.2
20260902074521 71 162 0.0 0.0 0.00 0.00 0.00 93 1017.2
20260902073019 71 162 0.0 0.0 0.00 0.00 0.00 93 1017.3
20260902071517 72 162 0.0 0.0 0.00 0.00 0.00 93 1017.2
20260902070020 72 162 0.0 0.0 0.00 0.00 0.00 93 1017.2
20260902064514 72 162 0.0 0.0 0.00 0.00 0.00 93 1017.2
20260902063014 72 162 0.0 0.0 0.00 0.00 0.00 92 1017.1
20260902061531 72 162 0.0 0.0 0.00 0.00 0.00 92 1017.2
20260902060012 73 162 0.0 0.0 0.00 0.00 0.00 92 1017.1
20260902054511 73 162 0.0 0.0 0.00 0.00 0.00 91 1017.2
20260902053006 73 162 0.0 0.0 0.00 0.00 0.00 91 1017.3
20260902051504 73 162 0.0 0.0 0.00 0.00 0.00 91 1017.2
20260902050005 74 162 0.0 0.0 0.00 0.00 0.00 91 1017.2
20260902044602 74 162 0.0 0.0 0.00 0.00 0.00 90 1017.2
20260902043103 74 162 0.0 0.0 0.00 0.00 0.00 89 1017.2
20260902041557 75 162 0.0 0.0 0.00 0.00 0.00 88 1017.2
20260902040054 75 162 0.0 0.0 0.00 0.00 0.00 88 1017.3
20260902034556 75 162 0.0 0.0 0.00 0.00 0.00 87 1017.1
20260902033056 76 162 0.0 0.0 0.00 0.00 0.00 87 1017.3
20260902031552 76 162 0.0 0.0 0.00 0.00 0.00 87 1017.1
20260902030052 76 162 0.0 0.0 0.00 0.00 0.00 86 1017.2
20260902024552 77 162 0.0 0.0 0.00 0.00 0.00 85 1017.0
20260902023106 77 162 0.0 0.0 0.00 0.00 0.00 85 1017.1
20260902021551 78 162 0.0 0.0 0.00 0.00 0.00 84 1017.1
20260902020051 79 162 0.0 0.0 0.00 0.00 0.00 82 1017.1
20260902014550 79 162 0.0 0.0 0.00 0.00 0.00 82 1017.0
20260902013054 80 162 0.0 0.0 0.00 0.00 0.00 80 1017.1
20260902011549 81 286 0.0 0.0 0.00 0.00 0.00 79 1016.8
20260902010049 82 286 0.0 0.0 0.00 0.00 0.00 76 1016.6
20260902004550 82 286 0.0 0.0 0.00 0.00 0.00 74 1016.6
20260902003048 83 286 0.0 0.0 0.00 0.00 0.00 74 1016.5
20260902001601 84 286 0.0 0.0 0.00 0.00 0.00 72 1016.6
20260902000047 85 286 0.0 0.0 0.00 0.00 0.00 71 1016.6
20260901234546 85 286 0.0 0.0 0.00 0.00 0.00 71 1016.6
20260901233046 85 286 0.0 0.0 0.00 0.00 0.00 70 1016.7
20260901231546 86 286 0.0 0.0 0.00 0.00 0.00 70 1016.7
20260901230045 87 286 0.0 0.0 0.00 0.00 0.00 67 1016.7
20260901224548 87 286 0.0 0.0 0.00 0.00 0.00 67 1016.7
20260901223049 87 286 0.0 0.0 0.00 0.00 0.00 66 1016.6
20260901221557 87 264 0.0 0.0 0.00 0.00 0.00 67 1016.6
20260901220052 87 264 0.0 0.0 0.00 0.00 0.00 70 1016.5
20260901214542 88 277 0.0 0.0 0.00 0.00 0.00 65 1016.6
20260901213041 88 277 0.0 0.0 0.00 0.00 0.00 64 1016.5
20260901211541 89 344 0.0 0.0 0.00 0.00 0.00 63 1016.6
20260901210043 89 298 0.0 0.0 0.00 0.00 0.00 61 1016.6
20260901204539 89 300 0.0 0.0 0.00 0.00 0.00 63 1016.7
20260901203038 90 300 0.0 0.0 0.00 0.00 0.00 62 1016.7
20260901201537 91 298 0.0 0.0 0.00 0.00 0.00 59 1016.7
20260901200040 91 272 0.0 0.0 0.00 0.00 0.00 61 1016.8
20260901194535 90 298 0.0 0.0 0.00 0.00 0.00 62 1017.0
20260901193036 90 306 0.0 0.0 0.00 0.00 0.00 64 1017.1
20260901191551 89 282 0.0 0.0 0.00 0.00 0.00 62 1017.3
20260901190035 90 262 0.0 0.0 0.00 0.00 0.00 60 1017.5
20260901184541 90 314 0.0 0.0 0.00 0.00 0.00 62 1017.7
20260901183045 90 17 0.0 0.0 0.00 0.00 0.00 60 1017.7
20260901181532 91 9 0.0 0.0 0.00 0.00 0.00 57 1017.8
20260901180031 90 265 0.0 0.0 0.00 0.00 0.00 60 1017.9
20260901174530 89 279 0.0 0.0 0.00 0.00 0.00 62 1018.0
20260901173028 89 286 0.0 0.0 0.00 0.00 0.00 66 1018.1
20260901171527 90 268 0.0 0.0 0.00 0.00 0.00 64 1018.2
20260901170027 89 250 0.0 0.0 0.00 0.00 0.00 62 1018.3
20260901164539 90 295 0.0 0.0 0.00 0.00 0.00 65 1018.4
20260901163020 89 94 0.0 0.0 0.00 0.00 0.00 66 1018.5